Home > Weather > San Marino > Past weeks

Flag for San Marino Weather for the Past 2 Weeks in San Marino, San Marino

Now
54 °F

Clear.


Feels Like: 53 °F
Forecast: 40 / 57 °F
Wind: 3 mph from West

Location: Rimini Airport

Current Time: May 6, 2016 at 12:57:58 AM

Latest Report: May 6, 2016 at 12:15 AM


Visibility: 10 mi

Pressure: 30.12 "Hg (27.81 "Hg at 666m altitude)

Humidity: 94%

Dew Point: 52 °F

Location of San MarinoLocation

Historic Weather in San Marino — Graph

°F

San Marino Temperature Yesterday

Maximum temperature yesterday: 63 °F (at 10:45 AM)
Minimum temperature yesterday: 50 °F (at 4:15 AM)
Average temperature yesterday: 58 °F

High & Low Weather Summary for the Past Weeks

 TemperatureHumidityPressure
High70 °F (Apr 27, 2:45 PM)100% (Apr 20, 11:15 PM)30.30 "Hg (Apr 20, 11:15 PM)
Low43 °F (Apr 21, 6:15 AM)38% (Apr 27, 5:15 PM)29.50 "Hg (Apr 24, 5:45 AM)
Average57 °F82%29.90 "Hg
* Reported Apr 20 11:15 PM — May 5 11:45 PM, San Marino, Weather by CustomWeather, © 2016

Note: Actual official high and low records may vary slightly from our data, if they occured in-between our weather recording intervals... More about our weather records

Advertising

San Marino Weather History for the Previous 24 Hours

Scroll right to see more
 ConditionsComfort  
Time TempWeatherWind HumidityBarometerVisibility
11:45 PM
Thu, May 5
54 °FClear.No wind100%30.12 "Hg10 mi
11:15 PM54 °FClear.No wind100%30.12 "Hg10 mi
10:45 PM54 °FClear.2 mph100%30.12 "Hg10 mi
10:15 PM57 °FClear.2 mph88%30.12 "Hg10 mi
9:45 PM57 °FClear.3 mph88%30.12 "Hg10 mi
9:15 PM57 °FSunny.3 mph88%30.12 "Hg10 mi
8:45 PM61 °FSunny.No wind77%30.12 "Hg10 mi
8:15 PM61 °FSunny.No wind77%30.12 "Hg10 mi
7:45 PM61 °FSunny.No wind77%30.12 "Hg10 mi
7:15 PM63 °FSunny.No wind73%30.12 "Hg10 mi
6:45 PM63 °FSunny.2 mph73%30.12 "Hg10 mi
6:15 PM63 °FSunny.5 mph73%30.12 "Hg10 mi
5:45 PM63 °FSunny.5 mph73%30.12 "Hg10 mi
5:15 PM63 °FSunny.6 mph73%30.15 "Hg10 mi
4:45 PM63 °FPassing clouds.8 mph73%30.15 "HgN/A
4:15 PM63 °FSunny.7 mph73%30.15 "Hg10 mi
3:45 PM63 °FSunny.7 mph68%30.15 "Hg10 mi
3:15 PM63 °FPassing clouds.7 mph68%30.15 "HgN/A
2:45 PM63 °FPassing clouds.6 mph68%30.15 "HgN/A
2:15 PM63 °FPassing clouds.7 mph68%30.15 "HgN/A
1:45 PM63 °FPartly sunny.7 mph68%30.15 "HgN/A
1:15 PM63 °FScattered clouds.7 mph68%30.15 "HgN/A
12:45 PM63 °FPassing clouds.8 mph64%30.15 "HgN/A
12:15 PM63 °FPassing clouds.7 mph64%30.15 "HgN/A
11:45 AM63 °FPassing clouds.8 mph64%30.15 "HgN/A
11:15 AM63 °FPassing clouds.7 mph68%30.15 "HgN/A
10:45 AM63 °FPassing clouds.7 mph73%30.15 "HgN/A
10:15 AM61 °FPassing clouds.9 mph83%30.12 "HgN/A
9:45 AM61 °FPassing clouds.10 mph77%30.12 "HgN/A
9:15 AM59 °FPassing clouds.8 mph82%30.15 "HgN/A
8:45 AM59 °FPassing clouds.7 mph88%30.15 "HgN/A
8:15 AM55 °FScattered clouds.8 mph94%30.12 "HgN/A
7:45 AM55 °FPassing clouds.6 mph88%30.12 "HgN/A
7:15 AM54 °FPassing clouds.8 mph94%30.12 "HgN/A
6:45 AM50 °FPassing clouds.7 mph100%30.12 "HgN/A
6:15 AM50 °FPassing clouds.2 mph94%30.12 "HgN/A
5:45 AM50 °FPassing clouds.2 mph94%30.12 "HgN/A
5:15 AM50 °FPassing clouds.No wind94%30.09 "HgN/A
4:45 AM50 °FPassing clouds.No wind94%30.09 "HgN/A
4:15 AM50 °FPassing clouds.3 mph94%30.09 "HgN/A
3:45 AM52 °FClear.3 mph94%30.12 "Hg10 mi
3:15 AM52 °FClear.3 mph94%30.09 "Hg10 mi
2:45 AM52 °FClear.No wind88%30.09 "Hg10 mi
2:15 AM52 °FClear.2 mph88%30.09 "Hg10 mi
1:15 AM52 °FClear.2 mph94%30.09 "Hg10 mi
12:45 AM52 °FClear.3 mph94%30.09 "Hg10 mi
12:15 AM54 °FClear.2 mph94%30.09 "Hg10 mi
Weather by CustomWeather, © 2016

See weather overviewHow to use our weather pages